Date,TemperatureHighF,TemperatureAvgF,TemperatureLowF,DewpointHighF,DewpointAvgF,DewpointLowF,HumidityHigh,HumidityAvg,HumidityLow,PressureMaxIn,PressureMinIn,WindSpeedMaxMPH,WindSpeedAvgMPH,GustSpeedMaxMPH,PrecipitationSumIn
2013-1-2,31,28,26,-8,-13,-19,18,15,10,30.33,30.25,2,0,4,0.05
2013-1-3,34,26,22,3,-4,-8,33,26,18,30.46,30.33,2,0,3,0.00
2013-1-22,25,24,24,-18,-19,-19,12,12,12,30.38,30.37,1,0,2,29.37
2013-1-24,27,26,26,-17,-17,-18,12,12,12,30.33,30.25,4,1,8,0.00
2013-1-25,50,34,21,0,-12,-21,12,12,12,30.33,30.20,4,0,7,0.00
2013-1-26,58,42,28,4,-8,-19,13,11,10,30.36,30.13,5,1,11,0.00
2013-1-27,63,52,41,30,14,-8,32,22,10,30.13,29.75,7,3,16,0.09
2013-1-28,76,66,60,35,26,13,37,24,10,29.87,29.67,8,2,17,0.00
2013-2-4,37,30,25,-10,-14,-20,15,12,10,30.08,30.00,3,0,7,0.00
2013-2-5,59,40,24,3,-7,-14,22,13,10,30.17,29.97,4,1,10,0.00
2013-2-6,62,48,30,5,-5,-18,14,10,10,30.18,29.89,8,2,13,0.00
2013-2-7,52,44,33,22,3,-11,35,19,10,30.27,29.90,4,1,14,0.61
2013-2-8,42,33,31,-5,-10,-16,20,14,10,30.42,30.26,4,1,10,0.03
2013-2-9,50,38,30,6,-3,-11,25,17,10,30.31,29.80,8,3,14,0.04
2013-2-10,55,46,41,25,14,0,38,29,11,29.81,29.49,8,4,18,0.06
2013-2-18,38,33,30,-9,-13,-15,12,12,12,30.16,29.84,8,3,16,0.03
2013-2-19,37,29,23,-10,-16,-20,12,12,12,30.45,30.15,7,2,14,0.00
2013-2-20,26,22,16,-18,-20,-24,12,12,12,30.50,30.26,4,2,8,0.00
2013-2-21,27,24,22,-3,-11,-22,26,20,11,30.29,29.83,8,2,14,0.02
2013-2-22,32,25,16,-4,-16,-27,26,15,10,30.18,29.85,5,1,9,0.10
2013-2-23,37,24,9,-13,-20,-27,15,11,10,30.18,30.00,4,1,9,0.03
2013-2-24,51,34,16,-2,-13,-25,18,12,10,30.10,29.94,5,1,9,0.00
2013-2-25,37,34,31,-1,-11,-16,21,13,10,30.04,29.75,6,2,11,0.02
2013-2-26,34,31,24,9,0,-19,35,27,12,30.29,29.68,3,1,6,0.00
2013-2-27,37,32,30,5,-6,-17,31,19,10,30.10,29.89,0,0,0,0.00
2013-2-28,33,31,29,-8,-12,-17,15,13,10,30.25,30.09,0,0,0,0.00
2013-3-2,37,30,28,-10,-14,-16,12,12,12,30.36,30.25,3,1,5,0.03
2013-3-3,45,36,26,-4,-10,-18,12,12,12,30.26,29.80,7,2,14,0.22
2013-3-4,55,43,36,3,-6,-12,17,12,10,30.00,29.68,6,2,16,0.00
2013-3-5,40,34,30,1,-8,-12,22,15,14,30.41,30.00,8,3,17,0.05
2013-3-6,43,32,25,-3,-10,-16,14,14,14,30.51,30.36,5,2,10,0.00
2013-3-7,51,38,24,4,-6,-16,14,14,14,30.39,30.16,7,2,12,0.00
2013-3-8,57,47,34,9,1,-9,14,14,14,30.28,30.01,6,2,12,0.00
2013-3-9,61,53,47,37,10,-6,46,20,10,30.02,29.60,7,2,12,0.47
2013-3-10,56,43,29,35,18,-6,47,38,21,29.96,29.56,7,1,13,0.07
2013-3-11,38,31,27,-6,-13,-19,21,13,10,30.09,29.92,5,1,10,0.00
2013-3-12,50,37,28,-4,-13,-19,12,10,10,30.40,30.07,8,2,14,0.00
2013-3-13,47,36,25,-6,-14,-22,10,10,10,30.54,30.38,4,1,8,0.00
2013-3-14,73,53,34,13,-2,-15,10,10,10,30.38,30.03,5,1,12,0.00
2013-3-15,83,61,38,21,5,-12,17,11,10,30.12,29.63,6,1,13,0.00
2013-3-16,62,46,38,5,-7,-12,11,10,10,30.13,29.68,8,2,12,0.00
2013-3-17,38,35,33,5,-7,-16,26,16,10,30.13,29.81,4,2,11,0.12
2013-3-18,56,43,35,7,0,-11,29,17,11,30.13,29.79,7,2,17,0.00
2013-3-19,40,35,30,1,-10,-17,22,13,10,30.32,30.11,4,0,6,0.01
2013-3-20,40,33,26,3,-12,-19,25,12,11,30.47,30.21,6,2,14,0.00
2013-3-21,31,28,24,-12,-17,-20,14,11,10,30.21,29.98,5,2,11,0.00
2013-3-22,35,33,30,-4,-10,-15,20,15,10,30.07,30.00,4,1,6,0.02
2013-3-23,41,35,33,3,-8,-15,27,15,10,30.09,29.92,3,1,7,0.02
2013-3-24,34,30,25,3,-6,-20,30,21,11,30.15,29.85,5,1,11,0.05
2013-3-25,36,29,22,-11,-17,-24,18,11,10,30.41,30.13,7,2,12,0.03
2013-3-26,42,31,20,-10,-16,-22,16,11,10,30.48,30.36,4,1,8,0.22
2013-3-27,59,37,25,-3,-13,-21,10,10,10,30.40,30.22,37,2,37,0.00
2013-3-29,53,52,50,0,-1,-2,11,11,11,30.16,30.12,1,0,2,0.01
2013-3-30,68,57,51,18,6,-2,21,13,10,30.12,29.85,6,1,12,0.01
2013-4-8,74,71,68,14,12,9,12,10,10,29.73,29.67,5,2,8,36.95
2013-4-9,69,67,64,38,14,9,36,14,10,29.77,29.64,6,2,14,0.33
2013-4-10,64,45,40,33,16,12,35,31,26,29.98,29.71,5,2,11,0.71
2013-4-11,44,38,35,12,-6,-14,31,16,10,29.86,29.75,5,2,11,0.00
2013-4-12,56,42,33,0,-9,-16,10,10,10,30.08,29.81,6,2,12,0.00
2013-4-13,67,50,34,16,3,-14,20,14,10,30.13,29.73,7,1,14,0.00
2013-4-14,77,64,55,24,13,2,14,13,10,29.74,29.46,11,3,21,0.11
2013-4-15,58,50,45,9,-2,-6,20,11,10,30.04,29.72,7,1,14,0.13
2013-4-16,49,46,43,-5,-7,-9,10,10,10,30.20,30.04,6,2,14,0.01
2013-4-17,53,50,46,26,16,-6,37,28,10,30.12,29.66,4,1,8,0.47
2013-4-18,49,42,38,24,4,-12,38,23,10,29.99,29.57,7,2,16,0.39
2013-4-19,55,44,33,-1,-8,-16,10,10,10,30.16,29.96,8,2,18,0.00
2013-4-20,59,47,31,2,-6,-18,10,10,10,30.30,30.15,7,2,12,0.00
2013-4-21,70,58,48,11,2,-5,10,10,10,30.25,30.09,9,2,16,0.00
2013-4-22,68,59,50,10,2,-4,14,10,10,30.17,29.91,6,2,11,0.01
2013-4-23,54,38,35,10,0,-13,24,19,10,30.25,30.02,8,2,18,0.62
2013-4-24,58,44,30,1,-5,-15,23,13,10,30.33,30.19,4,1,10,0.01
2013-4-25,71,55,34,18,4,-14,16,12,10,30.37,30.16,6,1,10,0.01
2013-4-26,59,53,49,19,8,-3,30,17,10,30.26,30.16,8,2,14,0.38
2013-4-27,56,51,48,24,19,10,35,28,16,30.24,30.04,2,0,5,0.40
2013-5-4,50,47,42,13,2,-6,29,16,10,30.07,29.94,4,1,8,0.12
2013-5-5,53,48,45,21,18,11,34,30,21,30.14,30.04,3,1,7,0.03
2013-5-7,79,67,57,24,15,1,13,13,10,30.01,29.95,3,0,5,0.01
2013-5-8,78,66,54,29,18,3,29,16,10,30.03,29.88,7,1,16,0.04
2013-5-9,79,67,59,38,23,8,39,22,10,30.18,29.83,5,1,10,15.11
2013-5-10,69,60,51,28,15,0,31,19,10,30.08,29.92,4,1,11,0.00
2013-5-11,70,58,46,25,10,-4,34,16,11,30.29,30.08,9,2,18,0.00
2013-5-12,72,53,36,14,2,-13,19,12,10,30.34,30.14,4,1,6,0.00
2013-5-19,86,72,63,32,27,17,29,19,10,29.70,29.52,10,2,21,0.26
2013-5-20,81,69,62,35,30,16,33,24,11,29.76,29.61,6,2,11,0.01
2013-5-21,80,68,56,34,12,2,31,12,10,29.79,29.66,4,1,11,0.00
2013-5-22,69,63,55,13,8,1,16,11,10,29.96,29.74,5,1,11,0.00
2013-5-23,69,60,52,14,8,0,18,12,10,30.17,29.96,4,1,8,0.00
2013-5-25,86,80,70,27,22,12,14,12,10,30.13,29.97,10,2,14,0.00
2013-5-26,86,76,68,33,22,15,26,14,10,30.06,29.86,9,2,16,0.00
2013-5-27,84,73,63,39,21,11,37,16,10,29.94,29.65,8,2,16,1.92
2013-5-28,79,75,72,40,25,15,29,16,10,29.81,29.63,8,2,17,0.05
2013-5-29,83,76,67,37,20,15,28,13,10,29.83,29.61,9,4,19,0.07
2013-5-30,76,66,60,42,32,14,37,29,11,29.76,29.60,6,2,17,0.98
2013-5-31,83,68,59,42,31,14,40,28,10,29.77,29.63,4,1,11,1.15
2013-6-1,73,67,62,39,16,5,37,16,10,29.99,29.69,5,1,10,0.00
2013-6-2,68,60,50,12,4,-1,21,11,10,30.11,29.98,4,1,10,0.00
2013-6-3,77,61,45,25,15,6,32,18,11,30.12,29.88,7,2,12,0.00
2013-6-22,94,87,81,36,30,26,13,13,13,29.91,29.79,7,3,14,0.00
2013-6-23,92,83,75,30,24,17,19,12,10,29.93,29.74,7,2,12,0.00
2013-7-3,64,63,61,29,28,22,30,26,20,30.08,30.01,2,0,4,0.21
2013-7-4,89,73,58,38,27,16,36,21,12,30.07,29.91,4,1,10,0.02
2013-7-5,92,79,64,28,19,8,19,11,10,30.01,29.86,7,2,11,0.00
2013-7-6,91,80,70,27,18,11,10,10,10,29.98,29.87,6,2,13,0.00
2013-7-7,91,78,72,30,22,14,19,13,10,29.98,29.91,8,1,16,0.01
2013-8-10,87,75,65,43,28,11,40,21,10,30.17,30.05,4,0,8,0.01
2013-8-11,90,76,61,34,26,16,32,17,10,30.15,29.98,4,1,8,0.00
2013-8-12,88,76,65,47,32,16,39,22,10,30.03,29.91,4,1,9,0.89
2013-8-13,84,74,67,39,26,10,33,18,10,30.12,30.02,3,0,6,0.00
2013-8-14,82,71,62,24,19,11,22,14,12,30.19,30.08,4,1,8,0.00
2013-8-15,77,69,62,16,11,5,16,11,10,30.14,30.00,6,1,10,0.00
2013-8-16,80,70,61,19,12,5,17,10,10,30.18,30.08,3,0,8,0.00
2013-8-17,83,69,56,34,18,6,33,16,10,30.22,30.08,6,0,11,0.00
2013-8-18,86,71,57,37,23,10,34,18,10,30.18,30.04,4,1,8,0.00
2013-8-19,88,75,61,40,27,13,36,19,10,30.13,29.97,6,1,11,0.00
2013-8-20,92,79,66,32,24,14,27,14,10,30.05,29.96,5,1,12,0.00
2013-8-21,93,80,59,32,26,5,26,14,10,30.07,29.96,6,1,9,53.50
2013-8-22,91,81,70,38,30,18,29,16,10,30.11,29.98,4,0,7,0.00
2013-8-23,94,82,71,48,34,15,38,20,10,30.08,29.97,4,1,8,0.00
2013-8-24,93,79,72,39,30,19,29,18,10,30.12,30.03,5,1,11,0.00
2013-8-29,87,84,82,24,22,20,10,10,10,29.93,29.92,1,0,3,0.01
2013-8-30,103,89,76,38,28,18,17,11,10,29.94,29.77,7,1,12,0.00
2013-8-31,92,84,76,37,25,17,25,12,10,29.83,29.74,3,0,8,0.00
2013-9-1,90,78,70,48,32,14,37,21,11,29.95,29.74,9,1,21,0.48
2013-9-2,86,74,63,29,20,9,26,13,10,30.04,29.95,4,1,8,0.00
2013-9-3,88,73,58,32,20,8,31,15,10,30.11,29.98,4,0,6,0.00
2013-9-4,91,74,59,37,22,10,33,16,10,30.15,30.06,4,0,8,0.00
2013-9-5,91,76,61,36,24,12,32,16,10,30.20,30.07,4,0,8,0.00
2013-9-6,92,78,66,32,25,10,24,14,10,30.14,29.96,4,1,9,0.00
2013-9-7,100,84,71,38,26,12,13,12,10,30.01,29.83,7,1,10,0.00
2013-9-8,104,89,75,41,30,19,12,12,12,29.90,29.75,6,1,11,0.00
2013-9-9,99,87,76,37,28,20,12,12,12,29.93,29.82,8,1,16,0.00
2013-9-10,98,84,72,32,23,12,12,10,10,30.05,29.92,7,1,14,0.00
2013-9-11,97,83,68,36,25,11,20,12,10,30.12,29.97,5,1,10,0.00
2013-9-12,89,79,71,34,24,14,23,13,10,30.14,30.02,5,1,12,0.00
2013-9-13,80,69,58,20,12,4,11,11,11,30.20,30.05,4,1,9,0.00
2013-9-14,80,68,53,19,10,-2,12,10,10,30.14,29.95,4,1,9,0.00
2013-9-15,87,74,65,28,16,7,15,11,10,30.04,29.94,6,1,12,0.05
2013-9-17,72,68,64,44,39,34,40,34,26,30.18,29.97,4,1,9,0.72
2013-9-18,91,78,67,44,30,17,40,21,10,29.98,29.77,8,2,15,0.00
2013-9-19,95,80,68,39,28,15,34,17,10,29.93,29.68,11,2,24,1.23
2013-9-20,71,64,54,40,17,1,35,18,10,30.07,29.90,5,1,10,0.00
2013-9-21,77,62,49,29,22,17,32,22,17,30.07,29.91,3,0,6,0.00
2013-9-28,69,64,59,40,32,26,34,30,23,30.00,29.86,4,2,8,0.27
2013-10-16,93,63,51,28,7,-3,17,10,10,30.13,29.99,4,1,8,0.00
2013-10-17,82,52,50,38,13,8,21,21,17,30.03,29.93,2,0,3,56.90
2013-10-18,82,82,82,38,38,38,21,21,21,29.93,29.93,2,2,3,0.00
2013-10-23,93,93,93,28,28,28,10,10,10,30.08,30.08,3,3,6,0.00
2013-10-28,93,93,93,28,28,28,10,10,10,30.08,30.08,3,3,6,0.00